Wind_Speed
72 75 76 71 69 68 70 70 71 68 64 64 64 63 58 54 56 57 58 55 52 49 48 48 45 44 44 45 45 45 44 44 44 44 44 45 46 46 45 46 46 48 49 49
71 77 71 67 69 71 71 71 69 71 69 70 68 67 63 59 60 61 59 57 55 53 53 49 49 49 48 49 49 49 47 46 47 46 47 47 46 46 46 46 47 48 48 47
68 67 63 68 68 68 72 73 73 61 65 73 75 75 68 63 62 62 60 57 58 56 54 52 51 51 51 51 52 50 50 49 50 49 49 48 46 45 45 46 47 47 46 46
69 61 64 64 66 65 73 70 67 68 59 52 67 81 74 67 67 65 62 61 58 57 55 52 51 51 52 53 53 53 53 52 52 51 51 48 46 45 45 45 46 44 44 45
69 64 65 68 67 61 63 59 60 67 71 72 54 58 68 72 70 67 65 62 60 57 57 55 51 51 53 53 52 53 53 53 54 53 50 47 45 45 45 45 44 42 43 45
48 58 67 69 66 65 62 66 64 63 65 74 79 73 71 49 59 70 68 67 64 63 62 60 56 55 55 54 54 55 56 56 54 50 47 45 44 44 44 42 42 42 42 43
54 60 66 68 68 69 67 64 63 64 65 72 72 73 74 54 42 48 62 67 70 69 66 62 58 55 54 54 55 56 54 52 50 48 45 44 43 44 41 40 40 41 41 42
44 52 48 54 67 70 70 67 68 67 68 70 67 72 78 63 60 46 44 46 55 62 66 66 58 56 55 55 53 53 51 49 48 46 43 43 44 42 40 39 39 40 39 41
36 39 37 42 46 51 57 64 53 62 59 57 65 68 66 68 66 47 43 47 47 51 52 58 56 55 53 51 50 49 47 46 46 45 43 43 42 41 39 39 40 39 39 41
34 36 35 37 42 46 50 55 58 60 61 58 61 62 60 59 58 53 45 42 47 49 50 47 48 49 52 52 48 46 47 46 45 44 43 43 41 40 39 39 40 39 39 39
23 36 33 39 39 45 52 48 60 55 63 63 57 57 47 54 60 62 49 43 44 41 44 48 50 50 52 52 49 48 47 46 46 45 44 42 40 39 39 40 39 39 40 38
25 24 35 44 37 31 47 48 45 51 60 48 51 46 37 40 46 47 45 34 36 34 32 38 45 49 52 51 50 49 48 48 46 44 44 42 40 40 39 40 41 41 39 38
17 19 23 23 38 41 39 30 39 40 44 53 55 54 45 40 39 37 37 36 30 31 30 31 38 46 50 51 52 50 49 47 46 45 43 42 42 42 40 41 42 42 41 39
20 16 19 24 16 25 40 39 39 49 44 52 53 55 44 45 57 55 49 42 37 34 33 34 36 39 44 47 49 49 49 47 44 44 43 43 44 42 40 40 42 43 42 41
24 21 21 21 27 23 17 19 26 34 47 41 46 58 59 43 44 45 54 43 40 37 34 37 34 41 43 45 47 49 47 45 45 45 45 44 42 40 39 41 42 44 45 43
21 15 13 16 21 30 26 13 19 25 27 40 40 34 39 40 49 44 44 43 40 38 39 39 40 38 41 44 48 51 51 46 45 45 45 42 41 39 40 41 42 43 44 44
29 21 18 17 15 18 22 21 22 19 18 26 38 38 39 44 46 46 45 44 42 40 42 44 47 43 41 42 45 49 47 45 45 43 42 41 40 40 40 40 41 41 43 44
24 18 17 13 17 17 17 18 19 24 18 13 18 30 31 36 42 46 46 44 43 44 44 44 43 41 42 45 48 50 49 45 43 43 41 40 40 39 39 40 41 42 43 44
18 19 20 18 13 16 18 24 28 30 30 26 25 20 26 27 30 40 46 47 44 45 45 44 43 45 47 47 50 48 47 43 42 41 40 40 40 40 40 41 42 43 44 45
12 20 22 23 21 21 19 22 24 20 22 21 23 23 24 30 33 32 35 43 44 45 43 41 44 45 49 51 48 47 43 42 41 40 40 40 40 41 42 42 42 43 45 46
12 13 19 20 20 21 18 18 19 22 23 22 25 26 25 28 27 30 30 30 31 38 43 47 48 50 51 51 48 45 41 41 38 38 39 40 41 42 43 43 44 45 46 47
16 17 18 18 20 20 20 18 15 17 18 20 23 24 25 26 28 27 31 32 31 35 39 41 40 38 38 38 36 35 34 35 36 39 41 42 44 44 44 45 44 46 47 47
12 14 14 18 22 20 19 19 18 19 20 22 23 23 25 26 28 29 27 29 33 35 34 32 32 32 30 31 34 35 38 40 41 43 43 44 44 45 45 45 45 45 48 48
8 9 12 16 18 19 23 22 22 22 22 22 23 25 25 26 25 27 28 27 28 29 30 31 32 35 35 36 39 42 43 43 43 44 43 45 47 47 47 46 46 45 46 46
9 11 13 16 19 20 22 22 21 20 19 20 21 21 20 22 27 29 30 32 32 32 34 36 38 40 41 43 43 43 42 42 43 46 46 46 45 45 46 45 44 45 46 47
13 12 14 15 17 20 22 23 22 21 20 19 19 19 20 21 22 24 27 29 33 36 36 39 40 41 41 41 42 43 43 42 42 44 45 45 45 46 46 46 45 45 46 47
Wind_Direction
243 243 239 244 246 247 249 250 249 247 248 246 245 241 241 241 238 236 239 243 246 247 246 249 252 253 256 259 260 260 262 266 268 271 274 277 277 278 278 280 281 284 288 290
244 245 240 241 244 246 245 246 248 249 249 250 246 244 242 240 242 239 240 242 244 244 247 249 252 255 256 258 261 262 263 265 267 271 275 277 275 277 278 279 283 287 289 289
246 246 246 246 245 246 243 246 246 252 251 251 250 243 240 242 244 245 244 245 246 247 250 252 255 258 260 261 261 262 263 264 267 271 276 274 274 275 277 280 285 287 289 288
248 243 244 245 247 247 246 246 249 247 252 259 256 253 244 241 243 246 246 247 248 252 252 252 256 258 259 260 262 263 263 265 268 273 273 271 273 273 276 282 285 286 287 289
245 245 243 245 246 248 253 252 252 248 248 252 254 259 243 244 244 245 247 251 250 251 252 254 255 256 258 260 261 262 264 266 268 271 269 269 270 272 277 282 284 285 286 289
243 246 245 245 241 245 245 248 252 253 254 255 252 255 243 250 245 245 249 252 251 251 252 251 251 253 254 256 259 261 262 264 265 264 265 266 268 273 278 281 282 283 286 291
235 234 240 241 243 241 243 244 250 253 254 256 252 256 249 246 259 257 250 248 253 253 253 255 252 255 255 257 259 260 261 261 261 261 263 265 269 273 277 278 280 283 286 292
241 240 241 247 246 247 246 245 248 251 254 259 259 256 255 254 263 267 244 250 254 255 253 252 253 253 253 259 259 259 257 256 256 259 261 264 269 273 274 276 278 281 286 289
240 243 236 236 239 240 241 237 244 248 245 257 257 260 255 254 256 254 259 258 258 254 247 247 251 251 255 256 256 252 251 251 254 256 260 264 268 271 273 275 277 280 282 288
241 238 235 236 240 236 234 231 242 236 243 251 257 259 262 251 254 262 267 260 264 256 247 244 244 249 253 254 250 246 245 249 253 256 260 264 266 268 270 272 275 276 279 287
227 237 241 247 242 238 233 234 237 244 235 246 253 256 252 249 247 249 261 257 257 252 246 244 243 243 245 245 244 242 245 249 252 256 260 262 264 266 267 270 272 273 277 283
242 235 236 240 243 240 238 242 241 241 235 244 249 245 245 247 242 241 243 242 247 243 241 235 235 233 237 239 239 240 244 247 251 255 258 261 262 263 266 269 270 270 274 279
227 236 241 248 247 244 247 248 252 247 250 250 252 249 240 239 229 230 234 238 245 250 258 248 237 236 234 234 235 237 241 246 251 253 256 258 259 262 266 268 268 269 271 276
236 242 229 237 255 256 250 252 258 242 251 246 252 244 244 245 245 251 255 251 255 250 250 249 245 240 236 236 235 237 241 246 249 252 255 257 260 263 265 267 267 268 269 273
235 240 239 237 241 260 239 231 238 251 244 251 253 250 251 255 250 245 250 254 254 254 252 251 255 248 241 240 239 240 242 244 248 251 254 257 260 262 265 266 266 266 268 270
246 235 230 240 257 262 262 243 244 245 248 246 242 237 239 241 253 246 245 249 250 244 245 248 253 255 249 249 245 241 239 243 247 251 255 256 259 262 263 264 265 266 266 269
245 246 238 238 246 251 253 257 253 253 238 236 235 235 228 235 241 245 241 242 243 244 242 242 245 250 254 248 248 245 242 245 249 252 253 256 258 260 261 263 265 266 268 269
239 233 248 252 247 250 238 227 228 250 256 271 223 218 226 231 234 235 236 240 242 245 246 247 250 248 247 242 246 244 246 246 249 251 253 255 257 259 263 266 267 267 269 269
230 228 234 255 275 274 252 248 255 259 262 266 266 260 249 245 244 239 239 238 237 239 244 246 245 247 238 243 247 247 246 245 248 250 252 254 257 260 263 266 268 270 270 270
227 231 236 247 269 272 265 257 252 252 244 244 251 254 257 249 247 243 238 235 237 237 239 242 241 243 246 253 249 245 243 244 247 250 254 256 258 261 264 265 266 270 271 271
251 239 235 236 250 257 252 257 247 239 250 243 238 239 240 250 250 241 240 231 237 240 235 237 243 247 249 245 242 240 243 247 249 253 256 258 261 263 264 266 268 269 270 271
239 242 233 230 239 246 251 261 253 250 256 254 251 247 248 248 249 244 238 236 234 234 239 243 244 244 242 245 244 247 252 256 257 258 259 261 261 263 265 267 268 270 269 269
235 236 236 234 242 254 266 260 259 259 258 258 256 257 250 246 246 243 233 233 232 234 238 237 240 244 247 251 255 257 258 259 259 260 261 263 264 265 267 268 269 268 269 269
252 252 250 252 258 260 265 270 269 270 267 263 261 256 253 251 249 249 250 244 246 246 245 246 248 252 253 255 257 261 261 259 260 262 263 264 266 267 266 267 268 268 269 269
260 259 260 256 252 252 255 260 263 266 268 266 266 264 261 259 257 254 252 253 252 253 252 251 252 254 256 258 261 262 263 263 264 266 266 266 267 268 267 267 268 270 272 273
269 272 269 266 261 257 257 261 264 268 271 276 278 277 274 272 269 268 267 266 263 259 257 256 256 257 258 258 258 261 263 265 266 267 268 268 268 268 268 269 269 270 271 274
Height
5580 5576 5585 5606 5607 5611 5613 5613 5621 5632 5636 5636 5640 5646 5651 5660 5663 5666 5671 5676 5681 5685 5687 5691 5694 5695 5698 5700 5702 5702 5705 5706 5707 5707 5707 5708 5709 5708 5708 5707 5706 5704 5703 5700
5553 5553 5585 5594 5588 5590 5593 5599 5608 5615 5620 5619 5626 5630 5638 5645 5649 5654 5659 5665 5669 5674 5675 5680 5683 5685 5687 5689 5691 5692 5695 5697 5696 5696 5697 5697 5697 5698 5697 5696 5695 5694 5691 5689
5536 5556 5574 5569 5571 5573 5578 5584 5597 5602 5608 5599 5604 5610 5621 5632 5636 5641 5649 5655 5657 5661 5665 5668 5671 5673 5675 5678 5679 5681 5683 5685 5685 5686 5686 5687 5686 5686 5687 5686 5684 5682 5680 5678
5521 5545 5545 5551 5554 5565 5563 5580 5583 5587 5584 5583 5592 5587 5606 5620 5621 5627 5636 5641 5647 5649 5653 5658 5660 5662 5663 5665 5667 5670 5671 5673 5674 5675 5675 5675 5676 5676 5675 5675 5673 5671 5669 5668
5508 5525 5531 5531 5543 5556 5556 5563 5565 5568 5566 5568 5573 5572 5587 5603 5610 5620 5623 5626 5633 5637 5638 5644 5647 5648 5650 5653 5655 5658 5660 5662 5663 5664 5664 5664 5664 5664 5664 5663 5662 5660 5659 5656
5497 5507 5509 5515 5533 5535 5545 5543 5550 5553 5553 5545 5560 5563 5566 5582 5600 5604 5608 5612 5616 5619 5622 5627 5634 5634 5638 5640 5643 5645 5648 5649 5650 5650 5651 5652 5653 5653 5652 5652 5651 5649 5648 5646
5487 5490 5494 5502 5512 5519 5523 5534 5535 5536 5533 5532 5552 5545 5559 5580 5587 5587 5589 5596 5598 5602 5606 5613 5619 5623 5626 5628 5630 5632 5634 5636 5637 5639 5640 5641 5642 5641 5641 5640 5640 5639 5637 5635
5468 5473 5483 5492 5495 5507 5513 5524 5524 5521 5523 5530 5535 5522 5555 5572 5573 5577 5577 5579 5583 5586 5590 5597 5605 5608 5612 5614 5616 5618 5620 5623 5625 5627 5628 5630 5630 5630 5629 5629 5628 5627 5626 5624
5458 5461 5472 5477 5485 5490 5496 5498 5519 5512 5516 5518 5514 5521 5544 5557 5561 5566 5563 5565 5569 5572 5575 5583 5590 5594 5597 5599 5602 5605 5608 5611 5613 5615 5617 5618 5618 5618 5618 5618 5618 5617 5616 5614
5452 5454 5462 5468 5470 5475 5482 5493 5496 5498 5504 5506 5506 5512 5527 5549 5554 5549 5551 5552 5556 5558 5563 5569 5575 5580 5583 5587 5590 5593 5595 5598 5600 5603 5604 5606 5606 5606 5607 5608 5607 5606 5605 5603
5444 5449 5455 5456 5461 5468 5473 5478 5484 5489 5494 5498 5501 5504 5522 5531 5536 5540 5539 5540 5545 5548 5551 5555 5560 5565 5570 5573 5576 5580 5583 5586 5588 5590 5592 5593 5594 5595 5596 5596 5595 5595 5594 5592
5438 5440 5445 5447 5454 5457 5462 5470 5473 5477 5486 5489 5491 5500 5513 5518 5520 5526 5529 5530 5534 5538 5539 5542 5546 5550 5555 5559 5563 5567 5570 5573 5576 5578 5580 5581 5582 5584 5584 5584 5584 5584 5583 5582
5433 5436 5438 5440 5446 5450 5454 5460 5466 5472 5474 5476 5482 5491 5503 5507 5509 5513 5518 5521 5524 5528 5532 5533 5536 5540 5543 5546 5550 5553 5557 5560 5563 5566 5568 5569 5571 5572 5572 5572 5572 5573 5572 5571
5425 5429 5432 5437 5440 5443 5446 5452 5457 5461 5462 5468 5471 5484 5490 5494 5498 5500 5505 5509 5513 5517 5522 5524 5527 5530 5532 5534 5537 5541 5544 5548 5551 5554 5556 5558 5559 5560 5559 5560 5560 5560 5560 5560
5420 5424 5428 5431 5435 5436 5439 5443 5447 5450 5455 5458 5467 5471 5476 5480 5484 5487 5492 5498 5502 5507 5510 5514 5516 5519 5521 5523 5526 5529 5532 5536 5539 5542 5544 5546 5547 5546 5547 5549 5549 5549 5549 5548
5416 5420 5422 5426 5430 5432 5434 5437 5440 5444 5447 5449 5454 5461 5466 5469 5474 5479 5483 5487 5491 5494 5499 5503 5506 5508 5511 5513 5515 5518 5520 5524 5527 5530 5532 5533 5534 5534 5535 5536 5537 5537 5536 5536
5412 5416 5419 5423 5425 5426 5430 5433 5436 5439 5440 5442 5445 5454 5453 5458 5464 5468 5472 5477 5481 5484 5488 5491 5494 5497 5499 5501 5504 5507 5510 5512 5515 5518 5520 5521 5521 5522 5523 5524 5524 5524 5524 5523
5409 5414 5416 5418 5421 5423 5425 5428 5431 5434 5434 5435 5437 5441 5445 5448 5452 5456 5460 5465 5470 5473 5476 5479 5482 5484 5487 5491 5493 5496 5498 5500 5503 5506 5507 5508 5510 5510 5511 5512 5513 5512 5511 5510
5404 5409 5411 5413 5416 5419 5421 5424 5427 5429 5432 5432 5433 5436 5439 5440 5442 5446 5449 5454 5458 5461 5464 5467 5470 5473 5477 5479 5482 5484 5486 5488 5490 5493 5495 5496 5498 5498 5499 5500 5499 5499 5499 5498
5400 5404 5408 5410 5413 5414 5417 5418 5419 5422 5425 5426 5428 5431 5433 5434 5436 5438 5440 5443 5447 5450 5454 5457 5460 5463 5466 5468 5470 5472 5473 5475 5478 5480 5482 5484 5485 5486 5486 5486 5486 5486 5486 5485
5397 5399 5403 5406 5407 5409 5411 5412 5415 5418 5423 5421 5423 5424 5425 5428 5429 5430 5432 5433 5436 5440 5443 5447 5450 5452 5454 5457 5458 5459 5461 5463 5465 5467 5470 5471 5472 5473 5473 5474 5473 5472 5472 5472
5395 5397 5398 5400 5403 5407 5408 5409 5411 5412 5412 5413 5415 5417 5419 5421 5423 5424 5425 5426 5428 5432 5436 5438 5440 5442 5444 5447 5448 5449 5451 5452 5454 5456 5458 5459 5460 5460 5460 5460 5459 5459 5458 5458
5394 5395 5395 5398 5399 5401 5403 5405 5406 5407 5408 5409 5411 5412 5413 5415 5417 5418 5418 5420 5422 5424 5426 5428 5430 5432 5434 5436 5437 5439 5440 5442 5443 5445 5446 5446 5446 5446 5446 5445 5444 5443 5444 5444
5390 5391 5392 5394 5395 5396 5398 5399 5398 5399 5401 5403 5404 5406 5407 5408 5409 5411 5412 5412 5414 5415 5417 5419 5422 5424 5424 5426 5428 5429 5430 5431 5431 5432 5432 5433 5433 5431 5431 5430 5430 5430 5430 5429
5389 5389 5389 5390 5391 5393 5394 5394 5395 5396 5396 5397 5398 5399 5400 5402 5403 5404 5405 5406 5407 5408 5409 5411 5412 5413 5414 5415 5416 5418 5419 5419 5419 5419 5419 5419 5418 5417 5418 5416 5415 5415 5415 5415
5386 5387 5387 5387 5388 5388 5389 5390 5390 5391 5391 5392 5392 5392 5393 5394 5395 5396 5397 5398 5399 5399 5399 5402 5403 5403 5404 5404 5405 5405 5405 5405 5405 5405 5405 5405 5404 5404 5403 5402 5400 5399 5398 5398